STARLINK-31871, 59673

Orbit data source: Space-Track

STARLINK-31871, 59673 is a payload satellite owned by SpaceX/Seattle (US) in LEO that was launched on Mon, 06 May 2024 UTC via an FALCON 9 launch vehicle from the Air Force Eastern Test Range (AFETR). Payload-class satellites include a variety of spacecraft equipped with specific instruments for various scientific and technological missions. These include communications satellites like Starlink; space stations such as the ISS; scientific satellites like the Hubble; Earth observation satellites from companies like Planet Labs, Umbra, and HawkEye 360; GPS; miniature CubeSats for education and research; and military/defense satellites.

Loading next visibility...
Identifier
59673, 2024-084V
Orbit
LEO
Country
Flag of USUS
Related business
Manufacturer
SpaceX/Seattle
Mission
Operational Commercial Communications
Bus & Motor
STARLINK V2M, Unknown motor
Mass
730 kg wet, ~700 kg dry
Launch date (UTC)
2024-05-06 (2 years ago)
Launch vehicle
FALCON 9
Launch site
Air Force Eastern Test Range (AFETR)
Object type
Payload
Rocket body
Debris
Shape & HBR
Box + 2 Pan, 17.7 m
Radar Cross Section
33.884 m², Large (>1 m²)

Expand to show TLE details & history
Last TLE update: 16 hours ago

TLE from 16 hours ago
0 STARLINK-31871
1 59673U 24084V   25348.22638939  .00000131  00000-0  14298-4 0  9995
2 59673  43.0020 164.3575 0000999 278.0070  82.0668 15.27565826 91303
Epoch: 2025-12-14T05:26Z
TLE epoch observation values (Epoch: 2025-12-14T05:26:00.043Z)
Latitude
-0.00003°
Longitude
-0.28506°
Altitude
482.773 km
Speed
7.626 km/s
True Right ascension
10h 57m 25s
True Declination
0° 00' 00"
Sunlit
Object was in daylight at epoch
Visualization orbit readout
Latitude
Unknown
Longitude
Unknown
Altitude
Unknown
Speed
Unknown
Apparent Right ascension
Unknown
Apparent Declination
Unknown
Sunlit
N/A
Visualization observer readout
Local Sidereal Time
19:42:54
Azimuth
Unknown
Elevation
Unknown
Doppler factor
Unknown
Orbital elements
Apogee altitude
485.722 km
Perigee altitude
484.351 km
Semi-major axis
6,863.173 km
Eccentricity
0.0001
Inclination
43.002°
RAAN
164.3575°
Arg. of periapsis
278.007°
True anomaly
82.07814°
Mean anomaly
82.0668°
Eccentric anomaly
82.07247°
Mean motion
3.81729 °/min
Orbital period
94.31 mins
BSTAR
0.000014298
Loading maneuver chart data...
Computing Atmospheric mass density...
Loading historical data...
Loading historical data...
Loading historical data...
Loading historical data...
Loading historical data...
Loading historical data...
Loading historical data...

Documentation

Showing up to 5 results
|